Location: B?ogocice
(50.2413°N, 20.2361°E)
Time: 23:22:29
(UTC+00:00)

Cosmos 1934 Rocket - Pass Details

Date: 15 June 2024
Orbit: 937 x 999 km, 83.0° (Epoch: 18 July)

Event Time Altitude Azimuth Distance (km) Brightness Sun altitude
Exits shadow 01:38:11 - 186° (S) 3,581 6.4 -6.5°
Reaches altitude 10° 01:40:23 10° 187° (S) 2,753 5.9 -6.3°
Maximum altitude 01:46:44 89° 99° (E) 1,007 4.2 -5.6°
Drops below altitude 10° 01:53:10 10° 10° (N) 2,781 7.4 -4.9°
Sets 01:55:42 0° 10° (N) 3,732 8.1 -4.6°
